LiveATC.Net - Listen to live air traffic control over the Internet!


ICAO: LYNI  IATA: INI   Airport: Constantine the Great Airport
City: Nis
Country: Serbia   Continent: Europe
LYNI METAR Weather: LYNI 060730Z VRB02KT 9999 FEW020 SCT033 BKN050 20/18 Q1017 BECMG FM0800 30010KT
LYNI Flight Activity (FlightAware)

LYNI Twr/App
Feed Status: UP   Listeners: 0
Listen in your browser - HTML5 player (in browser, HTML5)
Click here to listen with your own player (launches your MP3 player)
Archive Access: LYNI Twr/App
FacilityFrequency
Nis Approach119.525
Nis Approach/Tower (Alternate)136.075
Nis Tower118.950

NOTICE

Unauthorized use prohibited. See LiveATC.net Terms of Service


Airport/ARTCC Code
Frequency Search
(e.g., 124.400, 128.75)
Site-wide search
 


Browse Feeds
Top 50 Feeds
HF Oceanic Feeds
Coverage Map
Bad Weather Areas

LiveATC FAQ
Offer LiveATC feed
Contact LiveATC.net
Press Inquiries

LiveATC on iPhone
LiveATC on Android

LiveATC Mobile
(Mobile browser)

ATC Audio Archives
Interesting Recordings

LiveATC Forums


Home Page
About LiveATC.net


Terms of Use
Privacy Policy

AIRMETs/SIGMETs

FAA Airport Status
NAS Status
Arrival Demand


Server Software By:
Icecast.org
Liquidsoap